Location: Hawks Ness
(60.2333°N, 1.1667°W)
Time: 12:34:59
(UTC+00:00)

ATLAS 3B R/B - Pass Details

Date: 22 October 2019
Orbit: 1029 x 1166 km, 63.8° (Epoch: 10 November)

Event Time Altitude Azimuth Distance (km) Brightness Sun altitude
Exits shadow 05:37:59 12° 254° (WSW) 2,739 4.3 -10.9°
Drops below altitude 10° 05:39:55 10° 237° (WSW) 2,871 4.5 -10.6°
Sets 05:44:41 0° 207° (SSW) 3,850 5.4 -10.1°
